Time,TemperatureF,DewpointF,PressureIn,WindDirection,WindDirectionDegrees,WindSpeedMPH,WindSpeedGustMPH,Humidity,HourlyPrecipIn,Conditions,Clouds,dailyrainin,SoftwareType,DateUTC
2013-08-12 00:05:00,64.5,57.5,29.94,North,-999,0.0,0.0,78,0.00,,,-99.99,WeatherLink 5.5,2013-08-12 04:05:00,
2013-08-12 01:05:00,64.5,57.5,29.94,North,-999,0.0,0.0,78,0.00,,,-99.99,WeatherLink 5.5,2013-08-12 05:05:00,
2013-08-12 02:05:00,64.7,57.0,29.93,WSW,247,0.0,1.0,76,0.00,,,-99.99,WeatherLink 5.5,2013-08-12 06:05:00,
2013-08-12 03:05:00,-999.0,-99.9,29.91,North,-999,0.0,0.0,-999,0.00,,,-99.99,WeatherLink 5.5,2013-08-12 07:05:00,
2013-08-12 04:05:00,-999.0,-99.9,29.90,North,-999,0.0,0.0,-999,0.00,,,-99.99,WeatherLink 5.5,2013-08-12 08:05:00,
2013-08-12 05:05:00,63.9,58.0,29.92,WSW,247,0.0,1.0,81,0.00,,,-99.99,WeatherLink 5.5,2013-08-12 09:05:00,
2013-08-12 06:05:00,63.7,58.1,29.91,NNW,337,1.0,7.0,82,0.00,,,-99.99,WeatherLink 5.5,2013-08-12 10:05:00,
2013-08-12 07:05:00,63.5,55.1,29.93,North,0,0.0,6.0,74,0.00,,,-99.99,WeatherLink 5.5,2013-08-12 11:05:00,
2013-08-12 08:05:00,65.0,57.6,29.93,North,-999,0.0,0.0,77,0.00,,,-99.99,WeatherLink 5.5,2013-08-12 12:05:00,
2013-08-12 09:05:00,65.6,57.5,29.93,North,-999,0.0,0.0,75,0.00,,,-99.99,WeatherLink 5.5,2013-08-12 13:05:00,
2013-08-12 10:05:00,68.4,56.6,29.93,North,-999,0.0,0.0,66,0.00,,,-99.99,WeatherLink 5.5,2013-08-12 14:05:00,
2013-08-12 11:05:00,72.0,57.8,29.93,North,-999,0.0,0.0,61,0.00,,,-99.99,WeatherLink 5.5,2013-08-12 15:05:00,
2013-08-12 12:05:00,77.2,57.1,29.91,North,-999,0.0,0.0,50,0.00,,,-99.99,WeatherLink 5.5,2013-08-12 16:05:00,
2013-08-12 13:05:00,75.8,59.5,29.91,North,-999,0.0,0.0,57,0.00,,,-99.99,WeatherLink 5.5,2013-08-12 17:05:00,
2013-08-12 14:05:00,82.6,59.1,29.89,SW,225,0.0,10.0,45,0.00,,,-99.99,WeatherLink 5.5,2013-08-12 18:05:00,
2013-08-12 15:05:00,82.8,58.7,29.87,WSW,247,3.0,10.0,44,0.00,,,-99.99,WeatherLink 5.5,2013-08-12 19:05:00,
2013-08-12 16:05:00,82.4,57.0,29.86,West,270,5.0,12.0,42,0.00,,,-99.99,WeatherLink 5.5,2013-08-12 20:05:00,
2013-08-12 17:05:00,82.6,59.1,29.86,West,270,4.0,12.0,45,0.00,,,-99.99,WeatherLink 5.5,2013-08-12 21:05:00,
2013-08-12 18:05:00,81.1,57.7,29.86,West,270,4.0,13.0,45,0.00,,,-99.99,WeatherLink 5.5,2013-08-12 22:05:00,
2013-08-12 19:05:00,79.8,59.5,29.84,West,270,4.0,10.0,50,0.00,,,-99.99,WeatherLink 5.5,2013-08-12 23:05:00,
2013-08-12 20:05:00,76.8,60.4,29.84,SW,225,3.0,8.0,57,0.00,,,-99.99,WeatherLink 5.5,2013-08-13 00:05:00,
2013-08-12 21:05:00,71.8,59.4,29.83,SW,225,2.0,6.0,65,0.00,,,-99.99,WeatherLink 5.5,2013-08-13 01:05:00,
2013-08-12 22:05:00,69.6,58.2,29.85,SW,225,1.0,5.0,67,0.00,,,-99.99,WeatherLink 5.5,2013-08-13 02:05:00,
2013-08-12 23:05:00,69.1,57.7,29.84,SW,225,1.0,7.0,67,0.00,,,-99.99,WeatherLink 5.5,2013-08-13 03:05:00,